Location: Jastrzębia Góra
(54.8312°N, 18.3037°E)
Time: 04:52:38
(UTC+01:00)

ISS - Visible Passes

Search period start: 24 November 2017 00:00
Search period end: 04 December 2017 00:00
Orbit: 402 x 407 km, 51.6° (Epoch: 24 November)

Date Brightness Start Highest point End Pass type
(mag) Time Alt. Az. Time Alt. Az. Time Alt. Az.
29 Nov -1.2 17:27:37 10° SSE 17:27:45 10° SSE 17:27:45 10° SSE visible
30 Nov -1.5 18:08:57 10° SSW 18:10:15 18° S 18:10:15 18° S visible
01 Dec -1.8 17:17:13 10° SSW 17:19:27 17° SSE 17:20:01 16° SE visible
01 Dec -0.7 18:52:17 10° WSW 18:52:40 13° WSW 18:52:40 13° WSW visible
02 Dec -1.3 16:26:00 10° SSE 16:27:18 12° SE 16:28:37 10° ESE visible
02 Dec -2.3 18:00:05 10° SW 18:02:23 30° S 18:02:23 30° S visible
03 Dec -2.3 17:08:01 10° SW 17:10:49 26° SSE 17:12:04 20° ESE visible
03 Dec -1.0 18:43:43 10° WSW 18:44:42 18° WSW 18:44:42 18° WSW visible
